Hourly Data Report for October 08, 2015

All times are specified in Local Standard Time (LST). Add 1 hour to adjust for Daylight Saving Time where and when it is observed.

BAKER LAKE A
NUNAVUT

64°17'56.000" N
96°04'40.000" W
18.60 m
2300503
71926
YBK

Download Data

Hourly Data (October 2015)
Hourly Data Report for October 8, 2015
Temp Definition
°C
Dew Point Temp Definition
°C
Rel Hum Definition
%
Wind Dir Definition
10's deg

Wind Spd Definition
km/h
Visibility Definition
km
Stn Press Definition
kPa
Hmdx Definition


Wind Chill Definition


Weather Definition


TIME
00:00 Legend Double Dagger -8.2 -10.1 86 31 19 16.1 100.90   -15 Snow
01:00 Legend Double Dagger -8.3 -10.2 86 31 19 24.1 100.91   -16 LegendNANA
02:00 Legend Double Dagger -9.7 -11.3 88 33 12 16.1 100.96   -16 LegendNANA
03:00 Legend Double Dagger -9.1 -10.6 89 30 15 24.1 100.97   -16 Clear
04:00 Legend Double Dagger -9.3 -10.4 92 28 3 24.1 100.98   -11 LegendNANA
05:00 Legend Double Dagger -7.2 -8.9 88 28 17 24.1 100.99   -14 LegendNANA
06:00 Legend Double Dagger -6.5 -8.5 86 29 19 32.2 101.00   -13 Mostly Cloudy
07:00 Legend Double Dagger -5.7 -7.8 85 27 23 32.2 100.98   -13 LegendNANA
08:00 Legend Double Dagger -5.1 -7.7 82 27 22 32.2 100.97   -12 LegendNANA
09:00 Legend Double Dagger -5.6 -8.0 83 31 30 32.2 100.99   -14 Snow,Blowing Snow
10:00 Legend Double Dagger -4.7 -10.5 64 31 22 32.2 101.02   -12 LegendNANA
11:00 Legend Double Dagger -4.6 -10.6 63 29 25 32.2 101.01   -12 Snow
12:00 Legend Double Dagger -4.5 -9.7 67 28 30 32.2 101.01   -12 Snow
13:00 Legend Double Dagger -4.0 -9.1 68 28 31 32.2 101.01   -12 LegendNANA
14:00 Legend Double Dagger -4.3 -8.6 72 29 33 32.2 101.00   -12 LegendNANA
15:00 Legend Double Dagger -4.0 -8.5 71 28 33 32.2 100.96   -12 Mostly Cloudy
16:00 Legend Double Dagger -3.7 -8.2 71 28 35 32.2 100.95   -12 LegendNANA
17:00 Legend Double Dagger -3.9 -7.9 74 28 35 32.2 100.91   -12 LegendNANA
18:00 Legend Double Dagger -4.5 -8.5 74 32 33 16.1 100.94   -13 Snow Showers,Blowing Snow
19:00 Legend Double Dagger -5.2 -8.3 79 30 32 24.1 100.94   -13 Snow,Blowing Snow
20:00 Legend Double Dagger -4.6 -8.2 76 29 25 24.1 100.97   -12 Snow,Blowing Snow
21:00 Legend Double Dagger -4.8 -8.6 75 31 38 24.1 100.94   -14 Snow,Blowing Snow
22:00 Legend Double Dagger -5.5 -8.9 77 32 26 24.1 100.94   -13 LegendNANA
23:00 Legend Double Dagger -6.3 -9.9 76 31 26 24.1 100.95   -14 LegendNANA

Notes on Data Quality.

Legend

  • E = Estimated
  • M = Missing
  • NA = Not Available
  • ‡ = Partner data that is not subject to review by the National Climate Archives
Date modified: